Regional Weather Roundup
Issued by NWS Boston, MA

Current Version | Previous Version | Text Only | Print | Product List | Glossary Off
Versions: 1 2 3 4 5 6 7 8 9 10 11 12 13 14 15 16 17 18 19 20 21 22 23 24 25 26 27

000
ASUS41 KBOX 210810
RWRBOX

REGIONAL WEATHER ROUNDUP
NATIONAL WEATHER SERVICE TAUNTON MA
400 AM EDT SAT OCT 21 2017

NOTE:  "FAIR" INDICATES FEW OR NO CLOUDS BELOW 12,000 FEET WITH NO
SIGNIFICANT WEATHER AND/OR OBSTRUCTIONS TO VISIBILITY.

MAZALL-210900-
EASTERN MASSACHUSETTS

CITY           SKY/WX    TMP DP  RH WIND       PRES   REMARKS
BOSTON         CLEAR     56  36  47 W6        30.20R
BEVERLY        CLEAR     48  37  65 CALM      30.19R
LAWRENCE       CLEAR     49  39  68 S3        30.22R
BEDFORD        CLEAR     43  35  73 CALM      30.20R
BLUE HILL        N/A     53  35  50 NW15      30.19R
NORWOOD        CLEAR     40  38  93 CALM      30.20R
MARSHFIELD     CLEAR     46  41  81 W5        30.19S
PLYMOUTH       CLEAR     44  37  76 CALM      30.19S
TAUNTON        CLEAR     39  37  92 CALM      30.20R
NEW BEDFORD    PTCLDY    42  40  92 CALM      30.19R
$$

MAZALL-210900-
CAPE COD AND THE ISLANDS

CITY           SKY/WX    TMP DP  RH WIND       PRES   REMARKS
FALMOUTH       CLEAR     50  39  66 N6        30.20R
HYANNIS        CLEAR     46  41  82 CALM      30.18R
CHATHAM        CLEAR     51  49  92 NW3       30.19S
PROVINCETOWN   CLEAR     48  46  93 W3        30.20R
NANTUCKET      CLEAR     53  48  83 N7        30.18S
MARTHAS VNYRD  CLEAR     47  43  86 N5        30.19R
$$

MAZALL-210900-
CENTRAL AND WESTERN MASSACHUSETTS

CITY           SKY/WX    TMP DP  RH WIND       PRES   REMARKS
WORCESTER      CLEAR     53  32  44 NW15      30.23R
FITCHBURG      CLEAR     49  40  71 NW5       30.23R
ORANGE         CLEAR     36  36 100 CALM      30.25R
SPRINGFIELD    CLEAR     38  36  94 NE3       30.23R
WESTFIELD      CLEAR     41  40  96 CALM      30.23S
NORTH ADAMS    CLEAR     36  34  92 CALM      30.27S
PITTSFIELD     CLEAR     40  36  86 CALM      30.26R
$$

RIZALL-210900-
RHODE ISLAND

CITY           SKY/WX    TMP DP  RH WIND       PRES   REMARKS
PROVIDENCE     CLEAR     49  41  74 CALM      30.21R
NEWPORT        PTCLDY    52  44  74 CALM      30.20R
BLOCK ISLAND   CLEAR     58  44  60 NW7       30.21R
SMITHFIELD     CLEAR     52  37  56 NW7       30.21R
WESTERLY       CLEAR     54  39  57 N6        30.21R
$$

CTZALL-210900-
CONNECTICUT

CITY           SKY/WX    TMP DP  RH WIND       PRES   REMARKS
BRADLEY INTL   CLEAR     43  39  86 CALM      30.24S
HARTFORD       CLEAR     44  43  96 CALM      30.24S
BRIDGEPORT     CLEAR     50  41  71 NW3       30.24R
DANBURY        CLEAR     41  38  89 CALM      30.27R
GROTON         CLEAR     50  40  68 N8        30.20S
NEW HAVEN      PTCLDY    50  42  74 CALM      30.24R
CHESTER        FAIR      54  36  50 N6        30.23R
MERIDEN        CLEAR     40  38  93 CALM      30.25R
WILLIMANTIC    CLEAR     40  38  93 E3        30.24S
OXFORD         CLEAR     46  36  68 CALM      30.26R
$$

MEZ002-015-021-024-NHZ003-005-008-011-012-014-VTZ005-008-210900-
NORTHERN NEW ENGLAND

CITY           SKY/WX    TMP DP  RH WIND       PRES   REMARKS
PORTLAND ME    CLOUDY    46  36  68 CALM      30.17R
BANGOR ME      PTCLDY    42  35  76 SW8       30.15R
CONCORD NH     PTCLDY    41  36  82 CALM      30.22R
MANCHESTER NH  CLOUDY    45  40  82 CALM      30.20R
NASHUA NH      PTCLDY    42  39  89 NW6       30.22R
PORTSMOUTH NH  MOCLDY    48  38  69 W6        30.17R
JAFFREY NH     CLEAR     42  39  89 S5        30.24R
KEENE NH       CLEAR     36  35  96 S9        30.26R WCI  29
BURLINGTON VT  CLOUDY    47  40  76 CALM      30.20S
MT. WASHINGTON PTCLDY    36  30  80 NW52        N/A  WCI  19
$$

NYZ052-076-210900-
EASTERN NEW YORK

CITY           SKY/WX    TMP DP  RH WIND       PRES   REMARKS
ALBANY         CLEAR     44  36  73 CALM      30.26R
NEW YORK CITY  PTCLDY    62  41  46 N3        30.25R
$$

ANZALL-210900-
MARINE OBSERVATIONS

STATION/POSITION TIME  TEMP    WIND        PRES    VSBY  WAVE
                       AIR SEA DIR/SP/G                  HT/PER
                 (UTC) (F)     (DEG/KT/KT) (MB)    (MI)  (FT/S)
BOSTON BUOY      0750   59 59  260/  4/  4 1022.2R         1
BUZZARDS BAY     0700   61     350/ 11/ 12 1022.4S
NANTUCKET SOUND  0750   61 62  360/  8/ 10 1022.0R         1
MASS BAY-STELLWA 0704   59 59  250/  2/  4 1021.2R         1/ 8
ISLE OF SHOALS   0700   57     280/  9/ 10 1021.4R
S OF BLOCK IS    NOT AVBL
$$

......................KEY.........................
  SKY/WX - SKY CONDITION/PRESENT WEATHER
  TMP    - TEMPERATURE IN FAHRENHEIT
  DWPT   - DEWPOINT IN FAHRENHEIT
  RH     - RELATIVE HUMIDITY IN PERCENT
  WIND   - DIRECTION AND SPEED IN MPH
  PRES   - MEAN SEA LEVEL PRESSURE IN INCHES OF HG
  WCI    - WIND CHILL INDEX
  VSB    - VISIBILITY IN MILES
  HX     - HEAT INDEX
  TC     - TEMPERATURE IN CELSIUS
  VRB    - VARIABLE WIND DIRECTION
  N/A    - NOT AVAILABLE




USA.gov is the U.S. government's official web portal to all federal, state and local government web resources and services.